"Pseudo-MPEC" for P11XKzG

Created 2024 Sep 8 20:22:10 UT using Find_Orb

Click here for an explanation of pseudo-MPECs

 
 Astrometry: 
     P11XKzG* C2024 09 01.56187401 55 09.913-21 20 04.76   ~91Fb 21.66wXNEOCPF51
     P11XKzG  C2024 09 01.57224201 55 09.991-21 20 21.88   ~91Fb 21.99wXNEOCPF51
     P11XKzG  C2024 09 01.58259301 55 10.088-21 20 38.63   ~91Fb 21.64wXNEOCPF51
     P11XKzG 3C2024 09 03.47155301 55 31.103-22 11 35.53   ~93CM 21.61GVNEOCPT14
     P11XKzG 3C2024 09 03.47253001 55 31.107-22 11 37.08   ~93CM 21.55GVNEOCPT14
     P11XKzG KC2024 09 08.42121101 55 40.789-24 24 51.77   ~98K7 21.57GVNEOCPV06
     P11XKzG KC2024 09 08.42518301 55 40.760-24 24 58.21   ~98K7 21.23GVNEOCPV06
     P11XKzG KC2024 09 08.42915501 55 40.721-24 25 04.58   ~98K7 21.58GVNEOCPV06
     P11XKzG KC2024 09 08.43312001 55 40.699-24 25 10.78   ~98K7 21.61GVNEOCPV06

Station data:
(F51) Pan-STARRS 1, Haleakala  (N20.707234 W156.255910)  US/Hawaii.
   Observers J. Bulger, T. Lowe, A. Schultz, M. Willman. Measurers K.
   Chambers, S. Chastel, T. de Boer, L. Denneau, J. Fairlamb, H. Flewelling,
   M. Huber, C.-C. Lin, E. Magnier, Y. Ramanjooloo, R. Wainscoat, R. Weryk.
   1.8-m Ritchey-Chrétien + CCD.
(T14) Mauna Kea-UH/Tholen NEO Follow-Up (CFHT)  (N19.825252 W155.468876)
   US/Hawaii.  Observer R. Weryk. 3.6-m Canada-France-Hawaii Telescope.
(V06) Catalina Sky Survey-Kuiper  (N32.416871 W110.732550)  US/Arizona.
   Observers T. A. Pruyne, B. M. Africano, E. J. Christensen, G. A. Farneth,
   D. C. Fuls, A. R. Gibbs, A. D. Grauer, H. Gröller, J. A. Johnson, R. A.
   Kowalski, S. M. Larson, G. J. Leonard, D. Rankin, R. L. Seaman, F. C.
   Shelly, K. W. Wierzchoś. 1.55-m reflector + CCD.

Orbital elements:  P11XKzG
   Perihelion 2024 Mar 7.91472 +/- 0.53 TT = 21:57:11 (JD 2460377.41472)
Epoch 2024 Sep  8.0 TT = JDT 2460561.5   Earth MOID: 0.6570      AutoNEOCP
M  72.12696714 +/- 0.30             (J2000 ecliptic)
n   0.39181278 +/- 0.00061          Peri.  135.74092 +/- 0.21
a   1.84962483 +/- 0.00192          Node   141.19177 +/- 0.041
e   0.1164314 +/- 0.00071           Incl.   26.08970 +/- 0.030
P   2.516/918.789d         H 19.46  G  0.15   U  7.8
q 1.63427026 +/- 0.000975    Q 2.06497941 +/- 0.00331
From 9 observations 2024 Sept. 1-8; mean residual 0".10
Residuals in arcseconds: 
240901 F51  .20+  .25+    240903 T14  .01+  .02-    240908 V06  .02+  .06-    
240901 F51  .09-  .11-    240903 T14  .01-  .02+    240908 V06  .07-  .06-    
240901 F51  .11-  .14-    240908 V06  .02-  .01+    240908 V06  .07+  .10+    

Ephemerides (geocentric):
Date (UTC) HH   RA             Dec           delta  r     elong  mag " sig PA
---- --------  ------------   ------------  ------ ------ -----  --- --------
2024 09 08 20  01 55 38.741   -24 35 44.52  .94438 1.8085 135.8 21.7 .202  92
2024 09 08 21  01 55 38.509   -24 36 51.23  .94433 1.8086 135.8 21.7 .207  92
2024 09 08 22  01 55 38.274   -24 37 57.93  .94427 1.8087 135.9 21.7 .212  92
2024 09 08 23  01 55 38.033   -24 39 04.61  .94422 1.8087 135.9 21.7 .217  92
2024 09 09 00  01 55 37.788   -24 40 11.28  .94416 1.8088 135.9 21.7 .222  92
2024 09 09 01  01 55 37.539   -24 41 17.93  .94411 1.8088 135.9 21.7 .227  92
2024 09 09 02  01 55 37.285   -24 42 24.57  .94405 1.8089 135.9 21.7 .232  92
2024 09 09 03  01 55 37.027   -24 43 31.20  .94400 1.8090 135.9 21.7 .237  92
2024 09 09 04  01 55 36.764   -24 44 37.81  .94395 1.8090 136.0 21.7 .242  92
2024 09 09 05  01 55 36.496   -24 45 44.41  .94390 1.8091 136.0 21.7 .247  92
2024 09 09 06  01 55 36.225   -24 46 51.00  .94384 1.8091 136.0 21.7 .253  92
2024 09 09 07  01 55 35.948   -24 47 57.57  .94379 1.8092 136.0 21.7 .258  92
2024 09 09 08  01 55 35.667   -24 49 04.12  .94374 1.8093 136.0 21.7 .263  92
2024 09 09 09  01 55 35.382   -24 50 10.66  .94369 1.8093 136.1 21.7 .269  92
2024 09 09 10  01 55 35.092   -24 51 17.19  .94364 1.8094 136.1 21.7 .274  92
2024 09 09 11  01 55 34.797   -24 52 23.70  .94359 1.8095 136.1 21.7 .280  92
2024 09 09 12  01 55 34.499   -24 53 30.20  .94354 1.8095 136.1 21.7 .285  92
2024 09 09 13  01 55 34.195   -24 54 36.68  .94349 1.8096 136.1 21.7 .291  92
2024 09 09 14  01 55 33.887   -24 55 43.15  .94344 1.8096 136.2 21.7 .297  92
2024 09 09 15  01 55 33.575   -24 56 49.60  .94339 1.8097 136.2 21.7 .302  92
2024 09 09 16  01 55 33.258   -24 57 56.04  .94334 1.8098 136.2 21.7 .308  92
2024 09 09 17  01 55 32.937   -24 59 02.46  .94329 1.8098 136.2 21.7 .314  92
2024 09 09 18  01 55 32.611   -25 00 08.87  .94324 1.8099 136.2 21.7 .320  92
2024 09 09 19  01 55 32.280   -25 01 15.26  .94319 1.8100 136.2 21.7 .326  92
2024 09 09 20  01 55 31.946   -25 02 21.64  .94314 1.8100 136.3 21.7 .332  92
2024 09 09 21  01 55 31.606   -25 03 27.99  .94310 1.8101 136.3 21.7 .338  92
2024 09 09 22  01 55 31.262   -25 04 34.34  .94305 1.8101 136.3 21.7 .344  92
2024 09 09 23  01 55 30.914   -25 05 40.67  .94300 1.8102 136.3 21.7 .350  92
2024 09 10 00  01 55 30.561   -25 06 46.98  .94295 1.8103 136.3 21.7 .356  92
2024 09 10 01  01 55 30.204   -25 07 53.27  .94291 1.8103 136.4 21.7 .362  92
2024 09 10 02  01 55 29.842   -25 08 59.55  .94286 1.8104 136.4 21.7 .368  92
2024 09 10 03  01 55 29.476   -25 10 05.81  .94282 1.8104 136.4 21.7 .375  92
2024 09 10 04  01 55 29.105   -25 11 12.06  .94277 1.8105 136.4 21.7 .381  92
2024 09 10 05  01 55 28.730   -25 12 18.28  .94273 1.8106 136.4 21.7 .387  92
2024 09 10 06  01 55 28.350   -25 13 24.50  .94268 1.8106 136.4 21.7 .394  92
2024 09 10 07  01 55 27.966   -25 14 30.69  .94264 1.8107 136.5 21.7 .400  92
2024 09 10 08  01 55 27.577   -25 15 36.87  .94259 1.8108 136.5 21.7 .407  92
2024 09 10 09  01 55 27.184   -25 16 43.03  .94255 1.8108 136.5 21.7 .413  92
2024 09 10 10  01 55 26.787   -25 17 49.17  .94251 1.8109 136.5 21.7 .420  92
2024 09 10 11  01 55 26.385   -25 18 55.30  .94246 1.8109 136.5 21.7 .426  92
2024 09 10 12  01 55 25.978   -25 20 01.41  .94242 1.8110 136.6 21.7 .433  92
2024 09 10 13  01 55 25.567   -25 21 07.50  .94238 1.8111 136.6 21.7 .440  92
2024 09 10 14  01 55 25.152   -25 22 13.57  .94234 1.8111 136.6 21.7 .447  93
2024 09 10 15  01 55 24.732   -25 23 19.62  .94229 1.8112 136.6 21.7 .453  93
2024 09 10 16  01 55 24.307   -25 24 25.66  .94225 1.8112 136.6 21.7 .460  93
2024 09 10 17  01 55 23.878   -25 25 31.68  .94221 1.8113 136.6 21.7 .467  93
2024 09 10 18  01 55 23.445   -25 26 37.68  .94217 1.8114 136.7 21.7 .474  93
2024 09 10 19  01 55 23.007   -25 27 43.66  .94213 1.8114 136.7 21.7 .481  93